Location: Newark
(27.9675°N, 86.8869°E)
Time: 09:53:21
(UTC+00:00)

Courier 1B Rocket - Pass Details

Date: 27 October 2019
Orbit: 920 x 1202 km, 28.2° (Epoch: 14 November)

Event Time Altitude Azimuth Distance (km) Brightness Sun altitude
Exits shadow 21:25:55 31° 101° (E) 1,543 6.4 -39.1°
Drops below altitude 10° 21:28:59 10° 100° (E) 2,602 7.9 -38.4°
Sets 21:31:34 0° 100° (E) 3,548 8.8 -37.8°
